Regional Weather Roundup
Issued by NWS

Home | Current Version | Previous Version | Graphics & Text | Print | Product List | Glossary On
Versions: 1 2 3 4 5 6 7 8 9 10 11 12 13 14 15 16 17 18 19 20 21 22 23 24 25 26 27 28 29 30 31 32 33 34 35 36 37 38 39 40 41 42 43 44 45 46 47 48 49 50
000
ASUS45 KBOU 010007
RWRCO

WEATHER ROUNDUP FOR COLORADO
NATIONAL WEATHER SERVICE DENVER/BOULDER CO
600 PM MDT TUE MAR 31 2015

NOTE: "FAIR" INDICATES FEW OR NO CLOUDS BELOW 12000 FEET WITH NO
SIGNIFICANT WEATHER AND/OR OBSTRUCTIONS TO VISIBILITY.

COZ001>005-013-030-031-010100-
...NORTHWEST COLORADO...

CITY           SKY/WX    TMP DP  RH WIND       PRES   REMARKS
CRAIG          PTSUNNY   68  17  14 SW18      29.89F
HAYDEN         PTSUNNY   68  16  13 W14G20    29.92S
MEEKER         MOSUNNY   68  12  11 SW17G28   29.92F
MOUNT WERNER   NOT AVBL
STEAMBOAT SPGS PTSUNNY   64  16  15 SW8       29.94S
WALDEN         SUNNY     59  10  14 SW16      30.00F
$$

COZ006>008-011-010100-
...WEST CENTRAL VALLEYS...

CITY           SKY/WX    TMP DP  RH WIND       PRES   REMARKS
GRAND JUNCTION MOSUNNY   73  21  14 W8        29.85F
MONTROSE       MOSUNNY   74  13   9 SW16G25   29.93F
EAGLE          MOSUNNY   68  19  15 W9        29.96F
RIFLE          SUNNY     73  20  13 W21G30    29.88F
DELTA          NOT AVBL
NUCLA          MOSUNNY   72  14  11 SW14G23   29.98S
$$

COZ017>023-064>068-010100-
...SOUTHWEST COLORADO...

CITY           SKY/WX    TMP DP  RH WIND       PRES   REMARKS
DURANGO        MOSUNNY   69  15  12 W16       30.01S
CORTEZ         SUNNY     72  19  13 SW14      29.98F
PAGOSA SPRINGS MOSUNNY   62  14  15 NW10G25   30.08S
TELLURIDE      NOT AVBL
WOLF CREEK PAS PTSUNNY   39  18  41 SW14      30.32S
$$

COZ009-010-012-014-032>034-037-058>063-010100-
...CENTRAL COLORADO...

CITY           SKY/WX    TMP DP  RH WIND       PRES   REMARKS
ASPEN          MOSUNNY   62  14  15 S8        30.01F
BUENA VISTA    MOSUNNY   60  13  15 SW17G30   30.04R
COPPER MTN     MOSUNNY   43   7  22 SW13G28   30.25S
BERTHOUD PASS  FAIR      37  32  81 W14G33    30.28S
COTTONWOOD PAS MOSUNNY   52  12  20 SW30G40   30.14F
GUNNISON       PTSUNNY   59  19  21 W14G24    30.09S
KREMMLING      MOSUNNY   66   5   9 W14G24    29.99F
LEADVILLE      MOSUNNY   49  11  21 W6        30.13F
SALIDA         MOSUNNY   66  15  14 W15G21    30.11R
SUNLIGHT       MOSUNNY   48  23  37 CALM      30.20F
WILKERSON PASS PTSUNNY   48   9  20 SW7       30.24S
$$

COZ069>075-010100-
...SAN LUIS VALLEY/SANGRE DE CRISTO MOUNTAINS...

CITY           SKY/WX    TMP DP  RH WIND       PRES   REMARKS
ALAMOSA        PTSUNNY   64  15  15 SE6G22    30.05S
LA VETA PASS   PTSUNNY   46  18  31 SW8       30.20S
SAGUACHE       PTSUNNY   59  21  23 W9        30.09R
$$

COZ035-036-038>040-010100-
...NORTHERN COLORADO FRONT RANGE...

CITY           SKY/WX    TMP DP  RH WIND       PRES   REMARKS
DENVER INTL AP MOSUNNY   74  17  11 SE6       29.86F
DMNS CITY PARK   N/A     73  13  10 NE7       29.84F
AURORA         PTSUNNY   74  17  11 N6        29.88F
FRONT RANGE AP MOSUNNY   75  23  14 CALM      29.88F
ERIE MUNI ARPT MOSUNNY   74  15  10 E10G17    29.83F
BOULDER MUN AP MOSUNNY   77  19  11 W13G18    29.83S
CENTENNIAL     PTSUNNY   73  16  11 E3        29.88F
BROOMFIELD     PTSUNNY   72  18  13 NE10      29.87F
FORT COLLINS   SUNNY     75  19  12 E5        29.82F
LONGMONT       SUNNY     79  23  12 W6        29.84F
$$

COZ041-046-047-076>085-087-088-010100-
...PIKES PEAK/PALMER DIVIDE AND SOUTHERN FOOTHILLS...

CITY           SKY/WX    TMP DP  RH WIND       PRES   REMARKS
COLO. SPRINGS  MOSUNNY   69  13  11 SW12G37   29.93F
A. F. ACADEMY  PTSUNNY   66  13  13 SW16G24   29.93F
ELLICOTT       MOSUNNY  N/A N/A N/A S18       29.93F
FALCON         MOSUNNY   65  11  12 SE14G20   29.97F
FORT CARSON    MOSUNNY   75  13   9 S13       29.90F
LIMON          SUNNY     71  15  11 S17       29.90F
MONUMENT HILL  MOSUNNY   63  14  15 SW10G23   29.97S
TRINIDAD       MOSUNNY   74  12   9 S13       29.94F
$$

COZ042>045-048>051-090-091-010100-
...NORTHEAST COLORADO...

CITY           SKY/WX    TMP DP  RH WIND       PRES   REMARKS
GREELEY ARPT   SUNNY     79  19  11 S12       29.80F
AKRON          SUNNY     76  15  10 S7        29.85F
BURLINGTON     SUNNY     77  13   9 S14       29.88F
WRAY           SUNNY     81  15   8 SE8       29.82F
STERLING       SUNNY     79  19  11 SW8       29.80F
HOLYOKE        SUNNY     81  12   7 SW9       29.82S
FORT MORGAN    SUNNY    N/A N/A N/A SE5       29.83F
$$

COZ086-089-092>099-010100-
...SOUTHEAST COLORADO...

CITY           SKY/WX    TMP DP  RH WIND       PRES   REMARKS
PUEBLO         MOSUNNY   78  16   9 SE16G23   29.84F
LA JUNTA       SUNNY     80  15   8 S14       29.85F
LAMAR          SUNNY     80  20  10 SE14      29.84F
SPRINGFIELD      N/A     74  24  15 SE16      29.91F
$$


USA.gov is the U.S. government's official web portal to all federal, state and local government web resources and services.